Flag for U.S.A. Weather past 2 weeks in New City, New York, U.S.A.

Now
64 °F

Fog.


Feels Like: 64 °F
Forecast: 65 / 81 °F
Wind: No wind

Location: Westchester County Airport

Current Time: Sep 21, 2014 at 8:10:50 AM

Latest Report: Sep 21, 2014 at 6:56 AM


Visibility: 0 mi

Pressure: 29.90 "Hg

Humidity: 97%

Dew point: 63 °F

Location of New CityLocation

Historic Weather in New City — Graph

°F

New City temperature yesterday

Maximum temperature yesterday: 73 °F (at 1:56 PM)
Minimum temperature yesterday: 51 °F (at 12:56 AM)
Average temperature yesterday: 61 °F

Past Weeks' High & Low Weather Summary

 TemperatureHumidityPressure
High89 °F (Sep 6, 3:56 PM)97% (Sep 21, 2:56 AM)30.39 "Hg (Sep 21, 2:56 AM)
Low49 °F (Sep 14, 3:56 AM)32% (Sep 18, 3:56 PM)29.80 "Hg (Sep 6, 3:56 PM)
Average63 °F70%30.10 "Hg
* Reported Sep 6 6:56 AM — Sep 21 6:56 AM, New City, Weather by CustomWeather, © 2014

Note: Actual official high and low records may vary slightly from our data, if they occured in-between our weather recording intervals... More about our weather records

Advertising

New City weather history for previous 24 hours

 ConditionsComfort  
Time TempWeatherWind HumidityBarometerVisibility
6:56 AM
Sep 21
64 °FFog.No wind97%29.90 "Hg0 mi
6:02 AM64 °FFog.No wind94%29.92 "Hg0 mi
5:56 AM64 °FFog.No wind97%29.90 "Hg1 mi
4:56 AM64 °FFog.5 mph94%29.93 "Hg1 mi
3:56 AM64 °FFog.No wind97%29.95 "Hg3 mi
2:56 AM64 °FLight rain. Fog.No wind97%29.98 "Hg2 mi
1:56 AM65 °FRain. Fog.No wind94%30.00 "Hg2 mi
12:56 AM65 °FLight rain. Fog.5 mph94%30.03 "Hg6 mi
11:56 PM
Sep 20
65 °FLight rain. Passing clouds.No wind91%30.07 "Hg7 mi
10:56 PM64 °FPassing clouds.No wind90%30.07 "Hg8 mi
9:56 PM64 °FPassing clouds.No wind90%30.10 "Hg7 mi
8:56 PM63 °FPassing clouds.5 mph90%30.12 "Hg8 mi
7:56 PM65 °FClear.7 mph81%30.12 "Hg10 mi
6:56 PM67 °FSunny.6 mph63%30.12 "Hg10 mi
5:56 PM70 °FPassing clouds.10 mph64%30.14 "Hg10 mi
4:56 PM70 °FBroken clouds.14 mph61%30.15 "Hg10 mi
3:56 PM71 °FScattered clouds.9 mph59%30.16 "Hg10 mi
2:56 PM70 °FPartly sunny.10 mph59%30.18 "Hg10 mi
1:56 PM73 °FPartly sunny.15 mph53%30.20 "Hg10 mi
8:56 AM61 °FScattered clouds.5 mph81%30.30 "Hg9 mi
Weather by CustomWeather, © 2014

See weather overviewHow to use our weather pages